RH
91 99 98 100 98 99 100 100 100 44 23 22 26 27 36 33 25 17 14 13 12 12 12 12 12 12 15 17 18 20 22 24 25 25 25 26 24 26 30 32 34 35 37
96 96 100 100 100 100 100 100 94 74 29 23 27 28 36 31 22 16 14 13 12 13 13 13 13 13 16 19 19 21 24 25 26 27 26 26 30 35 39 44 46 47 48
95 97 99 100 100 100 99 97 94 62 30 25 34 40 42 28 20 18 16 14 14 14 14 15 15 15 17 20 22 22 24 27 29 30 31 38 44 46 46 51 59 61 62
94 81 92 99 100 99 100 98 96 52 35 30 31 52 32 24 29 23 19 16 15 15 16 18 18 19 20 22 25 27 28 28 31 40 46 45 45 57 66 58 60 60 54
84 93 94 93 98 98 100 98 92 81 45 30 30 31 26 24 31 29 27 21 19 18 19 21 22 23 24 28 30 31 31 36 44 45 47 58 73 72 69 64 61 53 53
77 99 95 100 93 86 100 68 42 44 46 35 32 34 29 27 34 37 35 27 24 18 20 23 25 28 30 32 33 38 45 45 45 55 74 78 78 70 68 68 64 51 45
86 95 97 100 99 94 88 93 80 75 78 57 38 37 31 35 36 42 40 26 25 22 23 25 27 29 33 35 43 44 44 52 71 83 84 80 77 69 68 63 60 76 76
75 98 84 98 96 99 92 97 89 87 74 55 48 38 31 36 38 44 42 35 29 27 38 32 28 40 50 42 45 42 51 71 81 92 92 87 86 81 81 88 80 78 75
91 91 87 90 97 99 99 99 100 98 88 65 50 42 32 31 36 39 41 39 34 58 65 59 58 68 82 47 42 47 75 86 94 99 99 92 90 88 94 97 95 91 86
59 74 100 97 96 99 98 100 100 100 99 98 85 47 39 44 49 42 48 60 73 69 36 43 62 76 54 59 49 72 88 96 97 95 98 95 96 99 99 94 100 100 96
60 45 59 61 84 99 98 99 100 97 98 100 99 87 38 64 52 78 79 80 53 46 60 91 93 62 72 56 65 82 84 95 94 95 99 97 93 92 88 87 93 96 95
72 64 51 46 56 100 98 100 96 98 99 100 99 82 90 72 86 82 86 66 76 81 87 97 85 75 60 63 69 67 90 92 97 99 100 99 98 97 85 77 77 88 98
74 72 72 77 92 94 95 100 98 100 100 100 100 98 96 82 93 94 96 98 93 89 97 93 91 76 68 73 75 96 100 97 100 98 100 100 99 100 92 82 89 87 86
75 69 70 90 95 100 100 98 100 99 100 100 100 99 98 98 98 95 100 90 96 96 98 92 98 81 74 94 99 100 94 100 100 100 100 100 100 98 95 90 88 93 94
74 74 82 77 92 97 80 83 96 100 100 100 100 99 98 95 97 95 99 95 99 98 94 94 97 96 89 92 95 100 94 98 99 98 97 96 94 96 94 93 93 95 95
65 68 67 69 70 76 86 98 98 98 98 97 99 100 97 90 98 98 93 91 99 99 99 96 100 98 97 98 97 97 96 96 99 99 98 97 99 99 100 99 98 98 94
56 60 66 63 71 81 86 92 99 100 99 100 99 98 98 98 97 94 94 94 97 94 95 96 99 100 100 100 99 98 99 100 100 99 99 99 98 97 95 100 100 100 98
37 46 52 57 63 69 75 86 94 100 100 100 100 99 99 100 99 95 100 88 85 95 100 89 100 92 100 98 99 99 100 97 100 98 100 100 100 92 96 99 98 100 99
35 37 40 46 56 58 60 72 79 86 88 90 92 100 100 95 100 100 100 93 96 100 100 100 94 99 98 100 100 100 96 96 92 90 96 94 90 94 94 98 93 92 99
35 36 39 41 43 49 51 58 66 71 72 76 85 89 93 98 100 100 94 86 89 94 93 94 96 93 92 98 96 100 100 98 94 94 93 90 92 92 89 86 88 82 93
30 35 38 42 44 44 47 49 55 58 60 67 75 87 81 84 90 95 94 94 96 98 98 99 99 99 97 98 98 100 98 97 88 80 82 82 85 81 77 79 89 96 99
34 33 32 32 34 37 43 52 60 66 70 68 64 67 75 78 78 89 95 94 99 99 100 100 99 100 100 98 90 87 82 76 70 74 79 80 88 88 90 96 100 97 93
80 83 85 83 70 54 46 49 57 58 59 61 64 66 68 70 75 80 80 90 94 94 90 90 95 94 100 100 100 100 84 70 65 72 74 68 70 75 84 90 98 99 99
70 75 78 80 87 90 90 93 97 100 98 85 69 57 56 56 61 72 84 92 87 88 91 95 95 100 97 89 89 93 95 99 98 96 94 95 94 94 99 96 96 85 87
57 58 66 83 79 84 91 89 98 92 97 98 100 99 91 91 92 82 65 71 72 71 80 99 100 100 99 100 100 100 100 100 100 100 100 99 98 98 89 90 94 96 99
72 78 83 86 83 76 67 71 84 88 89 89 97 97 98 99 100 99 94 96 100 99 100 97 87 80 80 92 97 100 97 99 100 99 94 90 98 100 100 99 99 99 98
Wind_Speed
23 29 29 33 35 37 39 33 34 29 26 24 25 24 20 19 18 17 16 18 17 16 17 16 15 15 15 13 13 13 13 12 11 10 9 8 8 9 8 8 9 9 10
21 15 18 35 38 33 43 38 32 27 25 26 25 22 21 19 18 18 20 19 18 17 17 16 16 15 15 14 14 14 14 13 12 11 10 10 11 10 9 10 9 11 12
17 3 13 25 43 28 33 31 29 27 25 26 25 23 19 19 21 19 18 18 17 17 17 16 16 15 15 15 15 16 15 14 13 12 12 12 11 10 10 12 13 13 14
15 7 9 21 29 38 33 34 31 28 26 25 25 28 28 24 22 19 18 19 19 18 18 17 16 15 15 16 16 16 16 16 14 13 12 12 12 12 12 11 10 13 13
17 15 10 10 15 19 33 32 31 29 27 26 26 25 25 24 21 19 20 22 19 20 19 17 16 16 17 17 17 17 16 16 15 14 13 13 12 12 12 12 13 13 14
22 21 21 18 20 19 28 31 28 25 24 24 27 28 26 24 22 21 22 24 23 23 21 19 17 17 17 17 18 18 17 16 16 14 13 13 13 13 14 13 15 15 16
27 25 25 31 26 23 22 26 32 32 30 30 28 28 29 28 27 25 24 26 24 23 21 19 17 17 17 17 18 19 17 16 16 14 14 13 14 14 14 14 17 18 18
29 25 28 32 33 32 26 29 29 27 30 32 32 32 33 33 31 27 25 26 25 23 17 17 18 19 19 21 20 21 19 18 17 16 15 14 15 16 16 17 20 20 18
26 27 31 27 34 36 26 30 39 34 34 35 36 38 38 38 31 27 25 24 24 20 25 30 27 30 22 23 24 22 20 18 18 17 16 17 17 18 19 21 23 22 21
34 34 32 32 34 39 34 32 36 42 36 39 39 40 38 34 32 29 25 21 25 30 28 23 24 22 25 25 25 23 21 21 21 22 21 20 19 21 21 24 24 24 25
23 34 39 36 33 35 41 36 35 40 43 40 40 40 39 38 37 31 29 27 28 23 19 26 23 24 23 27 25 23 24 24 24 24 24 25 24 26 25 26 24 26 28
19 24 29 34 41 36 36 37 34 35 39 42 41 41 42 42 48 52 31 26 27 30 31 25 28 29 26 25 24 27 31 29 29 29 28 28 30 30 28 29 30 31 31
14 19 22 27 31 38 38 36 38 48 35 44 39 42 42 45 48 48 32 29 32 35 35 30 26 24 29 31 32 33 32 30 31 32 30 33 32 34 32 34 36 38 40
11 11 16 19 23 23 31 24 40 41 44 44 37 41 45 43 38 27 31 37 40 40 36 32 30 32 31 34 33 36 37 35 35 33 34 34 35 36 34 34 34 38 44
12 15 16 12 17 25 21 15 24 35 37 34 28 29 33 30 31 28 38 40 32 37 38 29 30 32 36 37 37 37 41 36 37 37 39 36 35 36 36 37 39 40 44
10 13 13 12 10 11 14 14 16 21 24 16 18 30 33 31 33 38 33 34 37 37 35 31 31 30 37 36 36 39 37 38 41 40 36 34 32 36 36 40 42 44 45
7 9 10 11 13 13 14 13 15 18 21 23 23 25 39 34 36 36 38 40 41 41 41 37 34 34 31 36 42 35 37 39 36 39 40 37 35 41 42 42 44 47 47
5 7 8 9 11 13 13 15 17 24 29 32 33 35 31 35 42 35 39 40 38 39 43 37 37 36 40 36 35 38 35 43 40 41 42 41 45 45 45 46 47 49 48
7 8 9 10 12 13 13 15 17 20 23 27 31 42 44 36 39 42 41 44 44 45 46 47 46 45 45 43 43 44 46 47 45 44 45 48 49 48 48 49 48 48 47
13 12 13 13 13 14 16 18 20 21 21 22 25 28 33 37 41 43 42 42 45 45 48 51 53 51 50 49 49 51 50 47 49 48 48 48 49 50 51 51 50 52 49
18 18 18 18 19 20 20 21 23 25 26 27 28 30 30 32 35 39 41 42 44 48 50 54 55 55 55 54 53 52 55 51 51 49 50 48 48 50 51 51 51 49 48
21 22 23 24 24 25 25 26 28 30 31 33 33 34 35 36 37 39 41 42 46 48 52 55 57 59 56 52 49 50 51 54 57 52 51 50 50 50 50 51 54 56 56
14 13 14 20 26 29 30 31 32 34 35 36 36 38 40 40 41 43 44 46 48 51 52 54 58 58 57 56 57 58 56 56 57 58 58 61 60 59 57 54 53 60 59
28 25 24 23 22 19 20 23 27 31 35 37 39 40 43 44 45 46 48 51 52 53 55 56 60 62 62 62 62 61 57 57 59 63 63 62 63 59 65 63 65 68 66
32 31 33 33 38 43 38 28 25 24 25 31 31 35 42 45 45 48 52 53 54 55 57 59 61 64 64 62 60 59 61 64 65 63 63 67 72 70 72 72 71 70 68
32 35 37 37 37 34 32 32 34 35 39 38 40 40 47 43 43 40 46 50 48 53 60 62 62 65 67 66 64 64 68 63 64 65 71 70 70 73 76 74 73 66 65
Wind_Direction
268 284 254 235 238 222 198 208 200 204 199 200 198 196 199 202 204 203 203 210 205 205 207 205 206 205 204 193 200 199 196 198 203 212 223 236 250 262 273 275 275 281 284
276 295 251 228 220 211 211 198 196 209 205 200 205 197 202 203 207 203 202 209 203 203 207 209 210 211 210 202 204 207 209 212 216 224 235 248 257 262 265 268 275 278 285
272 302 236 222 214 193 185 192 202 213 207 201 204 207 218 211 211 208 206 209 209 211 208 212 214 211 215 212 210 213 217 222 227 235 242 246 250 257 264 274 280 288 289
252 257 259 183 192 200 202 199 208 209 211 206 207 201 210 211 214 211 212 210 214 214 213 208 213 215 216 218 216 219 224 230 234 236 239 247 255 265 273 275 293 298 298
236 233 218 216 179 191 212 207 212 215 217 210 207 211 215 213 216 219 217 218 217 216 215 214 213 214 220 220 221 223 229 232 233 238 245 252 260 267 273 277 291 297 296
222 220 217 207 185 193 204 203 211 214 221 222 215 213 214 216 219 223 222 219 212 220 217 216 219 220 224 227 228 226 228 234 240 243 249 259 261 265 271 280 286 295 296
229 216 216 217 203 203 209 210 213 219 219 221 227 222 218 217 217 222 218 219 212 215 222 222 223 227 229 232 235 237 237 238 242 246 254 261 258 267 277 283 284 291 293
222 223 222 216 221 208 220 210 222 219 216 224 224 226 224 220 219 221 220 219 211 212 219 236 227 225 231 242 240 242 243 243 247 247 250 260 266 271 279 283 286 288 292
211 223 221 228 232 219 236 218 221 221 225 223 226 228 225 224 222 226 225 223 215 225 239 233 236 242 238 240 247 245 245 249 250 248 254 261 267 273 280 284 288 292 296
221 222 236 228 222 224 228 228 237 231 233 234 224 228 229 232 234 232 224 232 246 238 221 221 238 238 233 236 246 244 248 252 255 254 258 259 267 272 279 288 286 289 294
231 227 223 232 229 228 225 227 229 251 249 235 225 224 226 227 229 226 236 245 233 222 229 242 247 235 237 245 243 243 256 255 253 256 260 265 267 269 274 277 282 283 286
239 231 232 232 234 230 231 241 242 235 240 235 220 223 229 229 230 233 222 228 227 232 236 259 234 236 243 247 247 245 249 253 252 254 262 265 268 269 274 277 278 276 278
239 242 248 240 228 240 233 234 241 234 235 241 252 222 226 230 236 243 216 231 233 242 245 265 254 238 237 240 240 249 250 252 252 255 258 263 267 271 275 280 285 287 284
243 249 248 241 229 233 223 246 245 244 246 243 239 235 229 240 244 208 232 236 241 252 252 268 243 227 245 243 246 251 250 248 250 256 259 259 268 275 278 280 282 286 287
223 218 222 232 220 222 231 238 227 245 237 242 247 239 239 242 235 227 229 235 246 256 256 271 246 235 238 246 246 250 252 246 249 254 256 262 267 269 273 276 281 284 290
234 229 232 217 224 227 226 222 239 227 226 243 233 233 230 231 232 232 235 239 243 257 262 267 264 256 241 255 250 253 260 260 261 269 261 263 274 278 277 277 278 281 284
241 253 250 254 247 239 241 232 222 234 236 241 248 251 239 238 242 243 238 238 249 257 263 266 267 267 268 273 266 271 273 270 263 271 264 267 269 273 275 284 286 286 279
208 225 232 243 252 251 247 240 231 236 244 247 258 251 255 250 256 253 259 247 246 252 260 263 270 261 262 272 274 274 270 268 262 264 265 270 274 273 274 280 283 285 282
236 231 238 245 249 251 250 244 245 246 244 244 249 246 249 251 255 255 256 245 246 252 258 264 263 267 269 266 273 271 265 262 262 261 263 266 268 270 272 275 278 283 286
246 248 246 248 251 251 255 254 252 250 248 247 248 247 245 249 251 255 255 252 253 258 264 267 270 269 271 274 272 271 271 266 265 266 267 268 270 272 274 278 280 278 279
247 249 254 258 261 261 258 259 260 260 259 255 252 252 252 252 253 254 255 256 258 261 264 265 268 269 266 267 268 274 276 272 271 272 271 267 273 275 275 276 275 278 278
259 261 259 259 260 262 265 266 265 265 265 264 263 262 260 258 258 258 258 260 262 263 262 264 266 267 268 268 269 271 272 274 275 274 275 272 271 273 272 275 273 276 272
259 267 275 277 271 267 266 265 262 262 261 262 264 266 267 266 266 266 266 264 262 262 264 267 268 268 271 273 274 273 272 272 276 279 278 279 278 277 277 277 267 274 276
274 265 261 261 266 268 267 269 266 267 271 272 269 268 268 267 266 266 267 267 266 266 267 267 268 270 269 270 272 275 279 279 278 279 281 283 284 283 283 279 280 279 282
261 267 285 277 269 263 257 253 269 276 276 266 277 276 274 273 272 272 272 271 270 268 266 265 266 268 269 269 269 270 268 270 273 275 275 275 276 278 278 281 280 277 275
252 254 258 259 265 266 269 273 273 281 279 279 265 276 273 276 271 272 276 272 273 276 274 274 271 267 267 268 270 272 267 266 271 270 272 274 273 272 271 274 275 269 269